Weather in Stuttgart

Germany     48°46′31″N   9°11′04″E
temp.,
°C
wind,
m/s
gust,
m/s
humid.,
%
clouds,
%
prec.,
mm/h
press.,
hPa
HPBL,
m
13 april, tue
tue1323:00+3w11655 0.0 102917
02:00+1w1171100 0.0 103024
05:00+1wsw017510 0.0 103024
08:00+2wnw116975 0.0 1031207
11:00+5nnw334842 0.0 10311591
14:00+7n3438100 0.0 10302066
17:00+8n243698 0.1 10292103
20:00+5n254469 0.1 1029325
14 april, wed
wed1423:00+3e11615 0.0 103151
02:00+1ene00695 0.0 103128
05:000ene017317 0.0 103031
08:00+1ne116641 0.0 1030164
11:00+6nne234310 0.0 10291508
14:00+8n3335100 0.0 10272216
17:00+9n4435100 0.0 10262058
20:00+5nne3667100 0.6 1027321
15 april, thu
thu1523:00+3ne007691 0.3 102822
02:00+2nnw017710 0.3 102719
05:000e118141 0.0 102729
08:00+1ene117735 0.0 1028135
11:00+6ne2451100 0.1 10271166
14:00+8ne444497 0.7 10251829
17:00+8ne454898 0.8 10241727
20:00+5ne26555 0.9 1024270
16 april, fri
fri1623:00+2ene311645 0.0 1026464
02:00+1ne14716 0.0 1026160
05:00−1ne14755 0.0 1025131
08:00+1ne25695 0.0 1026266
11:00+6ne355094 0.0 10241570
14:00+9nne443889 0.0 10222051
17:00+9nne554689 0.0 10211582
20:00+5nne47655 0.0 1023588
17 april, sat
sat1723:00+2ne15795 0.0 1024192
02:00+1ne12865 0.0 102388
05:000nne11896 0.0 102377
08:00+1ne128699 0.0 1023227
11:00+4ne2382100 0.0 1023591
14:00+7n2466100 0.0 1021938
17:00+7ne3471100 0.1 1021844
20:00+6nne2573100 0.1 1021384